Location: Czekanka
(50.4925°N, 19.2643°E)
Time: 13:22:51
(UTC+00:00)

BlueWalker 3 - Pass Details

Date: 15 June 2024
Orbit: 480 x 492 km, 53.2° (Epoch: 15 July)

Event Time Altitude Azimuth Distance (km) Brightness Sun altitude
Rises 01:10:42 0° 283° (WNW) 2,539 5.3 -9.3°
Reaches altitude 10° 01:12:53 10° 287° (WNW) 1,659 4.4 -9.1°
Maximum altitude 01:16:35 57° 7° (N) 570 2.5 -8.8°
Drops below altitude 10° 01:20:17 10° 88° (E) 1,660 5.1 -8.5°
Sets 01:22:29 0° 92° (E) 2,541 6.0 -8.3°
